Home   Weather   Kansas City   Past weeks

Flag for USA Past Weather in Kansas City, Missouri, USA — Yesterday and Last 2 Weeks

Now
52 °F

Clear.


Feels Like: 52 °F
Forecast: 51 / 71 °F
Wind: 3 mph from West

Location: Kansas City Downtown Airport

Current Time: Sep 29, 2016 at 5:21:02 AM

Latest Report: Sep 29, 2016 at 4:54 AM


Visibility: 10 mi

Pressure: 30.29 "Hg

Humidity: 86%

Dew Point: 48 °F

Location of Kansas CityLocation

Past Weather in Kansas City — Graph

°F

Kansas City Temperature Yesterday

Maximum temperature yesterday: 69 °F (at 2:54 PM)
Minimum temperature yesterday: 56 °F (at 11:54 PM)
Average temperature yesterday: 62 °F

High & Low Weather Summary for the Past Weeks

 TemperatureHumidityPressure
High94 °F (Sep 20, 2:54 PM)94% (Sep 18, 3:54 AM)30.28 "Hg (Sep 18, 3:54 AM)
Low53 °F (Sep 29, 3:54 AM)26% (Sep 26, 12:54 PM)29.84 "Hg (Sep 28, 1:54 AM)
Average74 °F69%30.01 "Hg
* Reported Sep 14 3:54 AM — Sep 29 3:54 AM, Kansas City, Weather by CustomWeather, © 2016

Note: Actual official high and low records may vary slightly from our data, if they occured in-between our weather recording intervals... More about our weather records

Advertising

Kansas City Weather History for the Previous 24 Hours

Scroll right to see more
 ConditionsComfort  
Time TempWeatherWind HumidityBarometerVisibility
3:54 AM
Thu, Sep 29
53 °FClear.3 mph80%30.28 "Hg10 mi
2:54 AM54 °FClear.5 mph77%30.27 "Hg10 mi
1:54 AM54 °FClear.5 mph77%30.27 "Hg10 mi
12:54 AM55 °FClear.7 mph74%30.26 "Hg10 mi
11:54 PM
Wed, Sep 28
56 °FClear.7 mph72%30.27 "Hg10 mi
10:54 PM57 °FClear.6 mph69%30.26 "Hg10 mi
9:54 PM58 °FClear.6 mph65%30.25 "Hg10 mi
8:54 PM60 °FPassing clouds.8 mph62%30.23 "Hg10 mi
7:54 PM63 °FOvercast.13 mph58%30.20 "Hg10 mi
6:54 PM64 °FPartly sunny.9 mph54%30.18 "Hg10 mi
5:54 PM66 °FSunny.15 mph49%30.16 "Hg10 mi
4:54 PM68 °FSunny.16 mph45%30.13 "Hg10 mi
3:54 PM69 °FSunny.15 mph45%30.11 "Hg10 mi
2:54 PM69 °FSunny.10 mph45%30.10 "Hg10 mi
1:54 PM67 °FSunny.14 mph49%30.10 "Hg10 mi
12:54 PM66 °FPassing clouds.10 mph50%30.09 "Hg10 mi
11:54 AM65 °FSunny.12 mph51%30.08 "Hg10 mi
10:54 AM63 °FSunny.13 mph54%30.06 "Hg10 mi
9:54 AM61 °FSunny.10 mph58%30.03 "Hg10 mi
8:54 AM60 °FSunny.8 mph60%30.00 "Hg10 mi
7:54 AM58 °FSunny.3 mph67%29.97 "Hg10 mi
6:54 AM58 °FClear.7 mph72%29.93 "Hg10 mi
5:54 AM60 °FClear.6 mph80%29.88 "Hg10 mi
Weather by CustomWeather, © 2016

See weather overviewHow to use our weather pages